Location: Chin
(49.7667°N, 112.4500°W)
Time: 10:08:32
(UTC+00:00)

Envisat - Pass Details

Date: 30 November 2021
Orbit: 764 x 766 km, 98.2° (Epoch: 24 January)

Event Time Altitude Azimuth Distance (km) Brightness Sun altitude
Rises 12:59:49 0° 12° (NNE) 3,247 6.3 -19.4°
Reaches altitude 10° 13:02:09 10° 10° (N) 2,316 5.5 -19.0°
Maximum altitude 13:07:12 68° 289° (WNW) 829 2.9 -18.2°
Drops below altitude 10° 13:12:14 10° 207° (SSW) 2,299 5.3 -17.4°
Sets 13:14:32 0° 205° (SSW) 3,220 6.1 -17.1°
